Location: Budapest
(47.4979°N, 19.0402°E)
Time: 09:51:45
(UTC+02:00)

Vanguard 3 - All Passes

Search period start: 24 October 2017 00:00
Search period end: 02 November 2017 23:00
Orbit: 510 x 3263 km, 33.3° (Epoch: 23 October)

Date Brightness Start Highest point End Pass type
(mag) Time Alt. Az. Time Alt. Az. Time Alt. Az.
24 Oct - 00:49:31 10° SSE 00:56:29 13° SE 01:02:40 10° ESE visible
24 Oct - 02:56:22 10° SSW 03:09:50 29° SSE 03:19:18 10° ESE visible
24 Oct - 05:10:07 10° WSW 05:22:54 37° S 05:30:47 10° ESE visible
24 Oct - 07:25:53 10° WSW 07:34:40 28° SSW 07:40:21 10° SE daylight
25 Oct - 01:42:10 10° SSW 01:54:55 23° SSE 02:04:49 10° ESE visible
25 Oct - 03:54:01 10° SW 04:08:24 36° S 04:17:44 10° ESE visible
25 Oct - 06:09:20 10° WSW 06:21:03 36° S 06:28:12 10° SE visible
25 Oct - 08:26:00 10° WSW 08:31:59 18° SW 08:36:21 10° S daylight
26 Oct - 00:29:48 10° S 00:39:57 17° SE 00:48:45 10° ESE visible
26 Oct - 02:38:29 10° SW 02:53:31 33° SSE 03:04:07 10° ESE visible
26 Oct - 04:52:48 10° WSW 05:06:52 40° S 05:15:34 10° ESE visible
26 Oct - 07:09:03 10° WSW 07:18:49 29° SSW 07:25:05 10° SSE daylight
27 Oct - 01:23:58 10° SSW 01:38:24 27° SSE 01:49:42 10° ESE visible
27 Oct - 03:36:29 10° SW 03:52:10 40° S 04:02:27 10° ESE visible
27 Oct - 05:52:14 10° WSW 06:05:04 38° SSW 06:12:56 10° SE visible
27 Oct - 08:09:28 10° WSW 08:16:05 19° SW 08:20:53 10° S daylight
28 Oct - 00:11:00 10° S 00:23:17 21° SE 00:33:59 10° ESE visible
28 Oct - 02:20:47 10° SW 02:37:04 37° SSE 02:48:44 10° ESE visible
28 Oct - 04:35:29 10° WSW 04:50:43 43° S 05:00:14 10° ESE visible
28 Oct - 06:52:09 10° W 07:02:51 30° SSW 07:09:42 10° SSE visible
28 Oct - 23:01:15 10° SSE 23:08:24 13° SE 23:15:14 10° ESE night (unlit)
29 Oct - 01:06:05 10° SSW 01:21:45 31° SSE 01:34:19 10° E visible
29 Oct - 02:19:04 10° SW 02:35:48 43° S 02:47:01 10° ESE visible
29 Oct - 04:35:06 10° WSW 04:48:58 39° SSW 04:57:34 10° SE visible
29 Oct - 06:52:51 10° WSW 07:00:04 19° SW 07:05:19 10° S daylight
29 Oct - 22:52:46 10° S 23:06:30 24° SE 23:18:43 10° E visible
30 Oct - 01:03:16 10° SW 01:20:29 41° SSE 01:33:13 10° ESE visible
30 Oct - 03:18:13 10° WSW 03:34:25 45° S 03:44:49 10° ESE visible
30 Oct - 05:35:11 10° W 05:46:44 30° SSW 05:54:14 10° SSE visible
30 Oct - 21:41:49 10° SSE 21:51:31 16° SE 22:00:57 10° ESE night (unlit)
30 Oct - 23:48:27 10° SSW 00:04:59 35° SSE 00:18:42 10° E visible
31 Oct - 02:01:44 10° WSW 02:19:18 46° S 02:31:29 10° ESE visible
31 Oct - 04:17:56 10° W 04:32:44 40° SSW 04:42:07 10° SE visible
31 Oct - 06:36:11 10° W 06:43:54 18° SW 06:49:35 10° S daylight
31 Oct - 22:34:57 10° SSW 22:49:36 27° SE 23:03:08 10° E visible
01 Nov - 00:45:56 10° SW 01:03:46 44° SSE 01:17:33 10° ESE visible
01 Nov - 03:00:59 10° WSW 03:18:01 46° S 03:29:16 10° ESE visible
01 Nov - 05:18:11 10° W 05:30:29 30° SSW 05:38:39 10° SSE visible
01 Nov - 21:23:22 10° S 21:34:35 19° SE 21:45:47 10° E night (unlit)
01 Nov - 23:31:05 10° SW 23:48:06 38° SSE 00:02:54 10° E visible
02 Nov - 01:44:31 10° WSW 02:02:42 48° S 02:15:49 10° ESE visible
02 Nov - 04:00:48 10° W 04:16:21 40° SSW 04:26:31 10° SE visible
02 Nov - 06:19:30 10° W 06:27:37 18° SW 06:33:43 10° S daylight
02 Nov - 20:19:10 10° SE 20:20:05 10° SE 20:21:02 10° SE night (unlit)
02 Nov - 22:17:28 10° SSW 22:32:37 30° SSE 22:47:16 10° E visible
